Starlink 31804

operational
NORAD ID: 59641 Int'l Des: 2024-082 Owner: SPXS Country: US Constellation: starlink
LEOCIRCULAR

About Starlink 31804

Description loading...

Live Position

Loading 3D Globe...

Upcoming Passes

Altitude History

Altitude vs Time

uPlot chart will show altitude changes over time

Two-Line Element Set

1 59641U 24082L 26048.60566338 -.00000447 00000-0 -67443-5 0 9994
2 59641 42.9987 252.9472 0000800 231.9528 128.1251 15.27574022101743
Epoch: Feb 17, 2026 • Age: 16 hours

Current Status

Altitude 484.8 km
Velocity 7.62 km/s
Sub-Earth Point -9.51°S, 1.77°W
Launch Date May 3, 2024
Age 1.7 years
Type internet

Technical Details

Classification Payload
Mass 730.00 kg
Dry Mass 700.00 kg
Total Mass 730.00 kg
Length 0.30 m
Diameter 4.10 m
Span 29.00 m
Shape Box + pan
Manufacturer SPXS
Bus Type Starlink V2M
Phase Status In Orbit
Owner/State SPXS/US

Large Constellations

Loading constellations...